Regional Weather Roundup
Issued by NWS

Home | Current Version | Previous Version | Text Only | Print | Product List | Glossary On
Versions: 1 2 3 4 5 6 7 8 9 10 11 12 13 14 15 16 17 18 19 20 21 22 23 24 25 26 27 28 29 30 31 32 33 34 35 36 37 38 39 40 41 42 43 44 45 46 47 48 49 50
000
ASUS44 KEWX 280211
RWRTX
SOUTH TEXAS REGIONAL WEATHER ROUNDUP
NATIONAL WEATHER SERVICE AUSTIN/SAN ANTONIO TX
900 PM CDT SAT AUG 27 2016

NOTE: "FAIR" INDICATED FEW OR NO CLOUDS BELOW 12,000 FEET WITH NO
SIGNIFICANT WEATHER AND/OR OBSTRUCTIONS TO VISIBILITY.

* - THESE STATIONS ARE NOT NWS OR FAA STATIONS...AND ARE NOT SUBJECT
    TO NWS AND FAA QUALITY CONTROL.

TXZ171-172-183>190-280300-
TEXAS HILL COUNTRY AND EDWARDS PLATEAU

CITY           SKY/WX    TMP DP  RH WIND       PRES   REMARKS
JUNCTION       PTCLDY    82  67  60 NE5       29.99R
*LLANO         CLEAR     81  75  83 E3        30.02R
BURNET         CLEAR     81  70  69 E3        30.02R
*HORSESHOE BAY CLEAR     81  70  70 CALM      29.99R
*KERRVILLE     PTCLDY    77  71  83 SE3       30.01R
*FREDERICKSBRG CLEAR     79  67  65 CALM      30.01R
*ROCKSPRINGS   PTCLDY    79  66  65 S6        30.05R
*BOERNE STAGE  MOCLDY    79  68  69 SE3       30.01R
*CASTROVILLE   CLEAR     83  69  62 SE5       29.97R
HONDO          CLEAR     84  71  65 SE8       29.96R
*UVALDE        CLEAR     79  69  72 SE5       29.96R
DEL RIO        PTCLDY    83  70  64 SW3       29.93R
LAUGHLIN AFB   PTCLDY    85  69  58 W8        29.94R
CARRIZO SPRGS  CLEAR     86  66  51 E6        29.91R
*EAGLE PASS    CLEAR     84  68  58 E6        29.92R
$$

TXZ173-191>194-202-209-217>225-228-280300-
CENTRAL AND SOUTH CENTRAL TEXAS

CITY           SKY/WX    TMP DP  RH WIND       PRES   REMARKS
GEORGETOWN     PTCLDY    82  70  65 E5        29.98R
AUSTIN/BERGSTM PTCLDY    84  72  67 SE5       29.96R
AUSTIN/MABRY   CLEAR     85  70  60 E3        29.98R
*AUSTIN/EXEC   CLEAR     81  72  74 CALM      29.98R
*LAGO VISTA    CLEAR     82  69  64 E6        30.00R
SAN MARCOS     PTCLDY    81  70  69 E5        29.98R
NEW BRAUNFELS  CLEAR     82  71  69 E3        29.95R
RANDOLPH AFB   CLEAR     80  74  80 E5        29.96R
PT SAN ANTONIO CLEAR     85  71  63 E8        29.94R HX  90
SAN ANTONIO    PTCLDY    83  71  67 E10       29.97R
STINSON FIELD  CLEAR     84  71  65 E8        29.93R
*PLEASANTON    CLEAR     83  69  62 E6        29.94R
*LA GRANGE     CLOUDY    82  76  80 CALM      29.94R
*GIDDINGS      CLOUDY    80  71  73 CALM      30.00R
*GONZALES      CLOUDY    82  74  76 E3        29.95R
$$

TXZ163>164-176>182-195>201-210>213-226-227-235-280300-
SOUTHEAST TEXAS

CITY           SKY/WX    TMP DP  RH WIND       PRES   REMARKS
COLLEGE STN    CLOUDY    79  70  74 E10       29.97R
*BRYAN         CLOUDY    76  72  87 E3        29.99R
*CALDWELL      CLOUDY    81  72  74 E9        30.00R
*CROCKETT        N/A     73  72  94 E3        30.02R
*BRENHAM       CLOUDY    82  73  74 E5        29.98R
HUNTSVILLE     LGT RAIN  73  71  93 CALM      29.98R
CONROE         CLOUDY    76  71  85 CALM      29.98R
HOUSTON BUSH   CLOUDY    75  72  90 NE6       29.96R
HOUSTON HOBBY  CLOUDY    79  70  74 NE10      29.94R
*HOUSTON SW AP NOT AVBL
PEARLAND       CLOUDY    81  71  71 NE5       29.96R
HOUSTON HOOKS  CLOUDY    77  71  82 NE5       29.97R
ELLINGTON FLD  MOCLDY    81  72  74 CALM      29.96R
SUGAR LAND     CLOUDY    80  67  64 NE7       29.95R
*HOUSTON EXEC    N/A     75  72  88 CALM      29.98R
*CLEVELAND MUN CLOUDY    74  72  93 CALM      29.99R
*WHARTON       LGT RAIN  75  71  85 NE3       29.96R
*COLUMBUS      NOT AVBL
*EAGLE LAKE    CLOUDY    77  75  93 E5        29.96R
$$

TXZ214>216-236>238-280300-
THE UPPER TEXAS COAST

CITY           SKY/WX    TMP DP  RH WIND       PRES   REMARKS
*ORANGE        TSTM      74  73  96 NE9       29.98R
PORT ARTHUR    TSTM      74  73  97 NE21G32   29.95R VSB 1
GALVESTON      PTCLDY    80  76  87 NE10      29.94R
ANGLETON       CLOUDY    82  73  74 NE5       29.94R
*BAY CITY      CLOUDY    80  75  85 NE7       29.95R
PALACIOS       CLOUDY    81  73  76 E5        29.94R
$$

TXZ229>234-239>247-280300-
TEXAS COASTAL BEND AND RIO GRANDE PLAINS

CITY           SKY/WX    TMP DP  RH WIND       PRES   REMARKS
VICTORIA       CLOUDY    80  74  81 E6        29.94R
*BEEVILLE      CLOUDY    81  75  83 E6        29.93R
ROCKPORT       CLEAR     84  75  74 SE10      29.92R HX  92
*PORT ARANSAS  CLOUDY    83  76  77 E7        29.92R HX  91
*PORT LAVACA   CLOUDY    83  78  86 SE7       29.94R HX  92
*INGLESIDE     CLEAR     83  76  78 SE7       29.92R HX  92
CORPUS CHRISTI PTCLDY    84  74  71 SE9       29.92R HX  91
CORPUS NAS     NOT AVBL
*ROBSTOWN      CLEAR     85  73  68 SE9       29.93R HX  92
ALICE          CLOUDY    82  75  79 SW3       29.92R
KINGSVILLE NAS NOT AVBL
COTULLA        CLEAR     86  70  58 E6        29.92R HX  90
*FAITH RANCH     N/A    N/A N/A N/A MISG        N/A
LAREDO         CLEAR     87  70  56 E9        29.91R HX  92
$$

TXZ248>255-280300-
DEEP SOUTH TEXAS

CITY           SKY/WX    TMP DP  RH WIND       PRES   REMARKS
BROWNSVILLE    CLEAR     82  74  76 E5        29.91R
PORT ISABEL    PTCLDY    85  76  74 E9        29.90R HX  94
*SOUTH PADRE     N/A     84  79  84 E7        29.91R HX  96
HARLINGEN      CLEAR     83  75  77 E7        29.90R HX  90
*HEBBRONVILLE  CLEAR     85  72  65 E10       29.94R HX  90
MCALLEN        CLEAR     89  70  53 E13       29.90R HX  94
*WESLACO       CLEAR     82  50  33 E6        29.90R
FALFURRIAS     CLOUDY    83  71  67 E3        29.92R
EDINBURG       CLEAR     86  73  63 E9        29.91R HX  93
*ZAPATA        PTCLDY    89  69  51 E8G16     29.90R HX  93
$$

TXZ213>215-236>238-242>244-246-247-251-254-255-280300-
CMAN STATIONS

STATION/POSITION TIME  TEMP    WIND        PRES    WAVE
                       AIR SEA DIR/SP/G            HT/PER
                 (UTC) (F)     (DEG/KT/KT) (MB)    (FT/S)
SABINE PASS      0100   81 87              1014.3
SEA RIM ST PARK  0200   78      70/  5/  8 1014.1
NORTH JETTY/GLS  0100   81 86                N/A
EAGLE POINT      0100   81 85              1013.5
MORGANS POINT    0100   80 85              1013.6
MISSION/ARANSAS  0100   86                 1013.0
PORT ARANSAS     0200   84 87   90/ 13/ 14 1013.4
MALAQUITE BEACH  0100   85 87              1013.0
BAFFIN BAY       0100   84 91              1012.4
PORT ISABEL      0100   85 85              1012.1
$$

GMZ080-GMZ150>470-280300-
OFFSHORE BUOY REPORTS

STATION/POSITION TIME  TEMP    WIND        PRES    WAVE
                       AIR SEA DIR/SP/G            HT/PER
                 (UTC) (F)     (DEG/KT/KT) (MB)    (FT/S)
20 E GALVESTON   0150   82 85   40/ 14/ 16 1012.9    3/ 5
90 E PT ARANSAS  0150   84 85   20/ 12/ 14 1012.8    3/ 7
35 NE PT MANSFLD 0150   85 86   70/ 12/ 14 1012.3    2/ 7
200 E PT ISABEL  0150   85 87   20/  4/  6 1011.3    2/ 7
$$




USA.gov is the U.S. government's official web portal to all federal, state and local government web resources and services.